TimeEDT,TemperatureF,Dew PointF,Humidity,Sea Level PressureIn,VisibilityMPH,Wind Direction,Wind SpeedMPH,Gust SpeedMPH,PrecipitationIn,Events,Conditions,WindDirDegrees,DateUTC
12:15 AM,71.6,69.8,94,29.97,10.0,South,10.4,-,N/A,,Overcast,170,2013-10-07 04:15:00
12:35 AM,71.6,68.0,88,29.96,10.0,South,8.1,16.1,N/A,,Overcast,190,2013-10-07 04:35:00
12:55 AM,71.6,68.0,88,29.96,10.0,South,5.8,-,N/A,,Overcast,190,2013-10-07 04:55:00
1:15 AM,71.6,68.0,88,29.96,10.0,South,8.1,-,N/A,,Overcast,190,2013-10-07 05:15:00
1:35 AM,71.6,68.0,88,29.96,10.0,South,6.9,-,N/A,,Overcast,190,2013-10-07 05:35:00
1:55 AM,71.6,68.0,88,29.95,10.0,South,8.1,-,N/A,,Overcast,190,2013-10-07 05:55:00
2:15 AM,71.6,69.8,94,29.94,10.0,South,6.9,-,N/A,,Overcast,180,2013-10-07 06:15:00
2:35 AM,71.6,68.0,88,29.93,10.0,South,6.9,-,N/A,,Overcast,180,2013-10-07 06:35:00
2:55 AM,71.6,69.8,94,29.92,10.0,South,6.9,-,N/A,,Overcast,170,2013-10-07 06:55:00
3:15 AM,71.6,68.0,88,29.92,10.0,South,9.2,-,N/A,,Overcast,190,2013-10-07 07:15:00
3:35 AM,71.6,69.8,94,29.91,10.0,South,5.8,-,N/A,,Overcast,180,2013-10-07 07:35:00
3:55 AM,71.6,69.8,94,29.90,10.0,South,6.9,-,N/A,,Overcast,180,2013-10-07 07:55:00
4:15 AM,71.6,69.8,94,29.89,10.0,South,6.9,-,N/A,,Overcast,170,2013-10-07 08:15:00
4:35 AM,71.6,69.8,94,29.90,10.0,South,5.8,-,N/A,,Overcast,190,2013-10-07 08:35:00
4:55 AM,71.6,69.8,94,29.90,10.0,South,6.9,-,N/A,,Overcast,190,2013-10-07 08:55:00
5:15 AM,71.6,69.8,94,29.89,10.0,South,9.2,16.1,N/A,,Overcast,190,2013-10-07 09:15:00
5:35 AM,71.6,69.8,94,29.89,10.0,South,9.2,-,N/A,,Overcast,190,2013-10-07 09:35:00
5:55 AM,71.6,69.8,94,29.88,10.0,South,8.1,-,N/A,,Overcast,190,2013-10-07 09:55:00
6:15 AM,71.6,69.8,94,29.88,10.0,South,8.1,17.3,N/A,,Overcast,180,2013-10-07 10:15:00
6:35 AM,71.6,69.8,94,29.88,10.0,South,9.2,-,N/A,,Overcast,170,2013-10-07 10:35:00
6:55 AM,71.6,69.8,94,29.87,10.0,South,13.8,17.3,N/A,,Overcast,190,2013-10-07 10:55:00
7:15 AM,71.6,69.8,94,29.88,10.0,South,10.4,-,N/A,,Overcast,190,2013-10-07 11:15:00
7:35 AM,71.6,69.8,94,29.88,10.0,SSW,10.4,20.7,N/A,Rain,Rain,200,2013-10-07 11:35:00
7:55 AM,71.6,69.8,94,29.89,10.0,SSW,9.2,17.3,N/A,,Overcast,200,2013-10-07 11:55:00
8:15 AM,71.6,69.8,94,29.89,10.0,SSW,12.7,20.7,N/A,Rain,Light Rain,200,2013-10-07 12:15:00
8:35 AM,71.6,69.8,94,29.89,10.0,SSW,10.4,-,N/A,Rain,Light Rain,200,2013-10-07 12:35:00
8:55 AM,69.8,69.8,100,29.89,7.0,South,9.2,16.1,0.03,Rain,Light Rain,190,2013-10-07 12:55:00
9:15 AM,69.8,69.8,100,29.90,10.0,SSW,10.4,16.1,N/A,,Overcast,200,2013-10-07 13:15:00
9:35 AM,69.8,69.8,100,29.91,10.0,SSW,10.4,21.9,0.01,Rain,Light Rain,200,2013-10-07 13:35:00
9:55 AM,69.8,69.8,100,29.91,10.0,SSW,9.2,16.1,0.03,Rain,Light Rain,200,2013-10-07 13:55:00
10:15 AM,69.8,69.8,100,29.91,10.0,SSW,9.2,19.6,N/A,Rain,Light Rain,210,2013-10-07 14:15:00
10:35 AM,69.8,69.8,100,29.92,2.0,SSW,11.5,20.7,0.27,Rain,Heavy Rain,210,2013-10-07 14:35:00
10:55 AM,64.4,64.4,100,29.94,3.0,Calm,Calm,-,0.33,Rain,Rain,0,2013-10-07 14:55:00
11:15 AM,64.4,64.4,100,29.94,5.0,SSW,5.8,-,0.13,Rain,Heavy Rain,210,2013-10-07 15:15:00
11:35 AM,64.4,64.4,100,29.94,2.5,South,6.9,-,0.41,Rain,Heavy Rain,190,2013-10-07 15:35:00
11:55 AM,64.4,64.4,100,29.93,1.5,South,6.9,-,0.70,Rain,Heavy Rain,190,2013-10-07 15:55:00
12:15 PM,66.2,66.2,100,29.92,5.0,SSW,9.2,-,0.04,Rain,Heavy Rain,200,2013-10-07 16:15:00
12:35 PM,66.2,66.2,100,29.91,10.0,SSW,5.8,-,0.06,Rain,Light Rain,210,2013-10-07 16:35:00
12:55 PM,68.0,68.0,100,29.92,10.0,South,4.6,-,0.06,Rain,Light Rain,190,2013-10-07 16:55:00
1:15 PM,68.0,68.0,100,29.91,10.0,South,6.9,-,0.01,Rain,Light Rain,190,2013-10-07 17:15:00
1:35 PM,68.0,68.0,100,29.91,10.0,South,5.8,-,0.01,Rain,Light Rain,180,2013-10-07 17:35:00
1:55 PM,68.0,68.0,100,29.91,7.0,Calm,Calm,-,0.04,Rain,Rain,0,2013-10-07 17:55:00
2:15 PM,68.0,68.0,100,29.91,10.0,South,3.5,-,N/A,,Mostly Cloudy,190,2013-10-07 18:15:00
2:35 PM,68.0,68.0,100,29.90,10.0,Calm,Calm,-,N/A,,Mostly Cloudy,0,2013-10-07 18:35:00
2:55 PM,68.0,68.0,100,29.91,10.0,South,3.5,-,N/A,,Overcast,190,2013-10-07 18:55:00
3:15 PM,68.0,68.0,100,29.91,10.0,Calm,Calm,-,N/A,,Mostly Cloudy,0,2013-10-07 19:15:00
3:35 PM,68.0,68.0,100,29.90,10.0,Calm,Calm,-,N/A,,Mostly Cloudy,0,2013-10-07 19:35:00
3:55 PM,69.8,69.8,100,29.91,10.0,SW,3.5,-,N/A,,Overcast,220,2013-10-07 19:55:00
4:15 PM,69.8,69.8,100,29.91,10.0,Calm,Calm,-,N/A,,Overcast,0,2013-10-07 20:15:00
4:35 PM,69.8,69.8,100,29.90,10.0,Calm,Calm,-,N/A,,Mostly Cloudy,0,2013-10-07 20:35:00
4:55 PM,69.8,69.8,100,29.90,10.0,Calm,Calm,-,N/A,,Scattered Clouds,0,2013-10-07 20:55:00
5:15 PM,69.8,69.8,100,29.90,10.0,Calm,Calm,-,N/A,,Mostly Cloudy,0,2013-10-07 21:15:00
5:35 PM,69.8,69.8,100,29.91,10.0,Calm,Calm,-,N/A,,Overcast,0,2013-10-07 21:35:00
5:55 PM,68.0,68.0,100,29.93,10.0,NNW,5.8,-,N/A,,Overcast,330,2013-10-07 21:55:00
6:15 PM,68.0,68.0,100,29.93,10.0,North,3.5,-,N/A,,Overcast,360,2013-10-07 22:15:00
6:35 PM,68.0,66.2,94,29.93,10.0,NNE,3.5,-,N/A,,Mostly Cloudy,20,2013-10-07 22:35:00
6:55 PM,68.0,66.2,94,29.94,10.0,North,4.6,-,N/A,,Overcast,350,2013-10-07 22:55:00
7:15 PM,66.2,64.4,94,29.95,10.0,NNW,3.5,-,N/A,,Overcast,330,2013-10-07 23:15:00
7:35 PM,64.4,60.8,88,29.95,10.0,NNW,4.6,-,N/A,,Overcast,340,2013-10-07 23:35:00
7:55 PM,64.4,59.0,83,29.97,10.0,North,3.5,-,N/A,,Overcast,350,2013-10-07 23:55:00
8:15 PM,64.4,59.0,83,29.97,10.0,North,3.5,-,N/A,,Overcast,360,2013-10-08 00:15:00
8:35 PM,64.4,59.0,83,29.98,10.0,Calm,Calm,-,N/A,,Overcast,0,2013-10-08 00:35:00
8:55 PM,62.6,59.0,88,29.99,10.0,Calm,Calm,-,N/A,,Overcast,0,2013-10-08 00:55:00
9:15 PM,64.4,57.2,77,29.99,10.0,North,3.5,-,N/A,,Overcast,10,2013-10-08 01:15:00
9:35 PM,64.4,57.2,77,30.00,10.0,Calm,Calm,-,N/A,,Overcast,0,2013-10-08 01:35:00
9:55 PM,62.6,57.2,82,30.01,10.0,North,3.5,-,N/A,Rain,Rain,360,2013-10-08 01:55:00
10:15 PM,62.6,55.4,77,30.02,10.0,NNW,5.8,-,N/A,,Overcast,340,2013-10-08 02:15:00
10:35 PM,62.6,55.4,77,30.03,10.0,North,5.8,-,N/A,,Overcast,350,2013-10-08 02:35:00
10:55 PM,62.6,53.6,72,30.04,10.0,North,5.8,-,N/A,,Overcast,350,2013-10-08 02:55:00
11:15 PM,62.6,53.6,72,30.04,10.0,North,5.8,-,N/A,,Overcast,360,2013-10-08 03:15:00
11:35 PM,60.8,51.8,72,30.05,10.0,North,8.1,-,N/A,,Overcast,360,2013-10-08 03:35:00
11:55 PM,60.8,51.8,72,30.05,10.0,North,8.1,-,N/A,,Overcast,360,2013-10-08 03:55:00